Overview Statistics Trail Chart Weather Telemetry Raw packets
 

This is the latest recevied weather packets stored in our database for station/object N7WSS. If no packets are shown the sender has not sent any weather packets the latest 10 day(s).

<< 100 101 102 103 104 105 106 >>
Time Temp. Humidity Pressure Rain* Wind** Luminosity Snow
1787880396 33.89° C 33% 1011.3 hPa 0 mm - - -
1787880091 33.89° C 33% 1011.4 hPa 0 mm - - -
1787879794 33.89° C 34% 1011.5 hPa 0 mm - - -
1787879481 33.89° C 35% 1011.3 hPa 0 mm - - -
1787879176 33.89° C 35% 1011.4 hPa 0 mm - - -
1787878878 35° C 34% 1011.2 hPa 0 mm - - -
1787878573 35.56° C 28% 1010.7 hPa 0 mm - - -
1787878268 35.56° C 28% 1010.5 hPa 0 mm - - -
1787877963 36.11° C 28% 1010.6 hPa 0 mm - - -
1787877659 36.67° C 27% 1010.5 hPa 0 mm - - -
1787877354 36.67° C 27% 1010.7 hPa 0 mm - - -
1787877050 36.67° C 26% 1010.9 hPa 0 mm - - -
1787876745 36.67° C 25% 1011.1 hPa 0 mm - - -
1787876439 36.67° C 25% 1010.7 hPa 0 mm - - -
1787876138 37.22° C 26% 1010.6 hPa 0 mm - - -
1787875833 36.67° C 27% 1010.7 hPa 0 mm - - -
1787875535 39.44° C 26% 1010.9 hPa 0 mm - - -
1787875233 39.44° C 22% 1010.8 hPa 0 mm - - -
1787874931 40° C 24% 1010.7 hPa 0 mm - - -
1787874627 40.56° C 22% 1010.7 hPa 0 mm - - -
1787874326 40.56° C 24% 1010.8 hPa 0 mm - - -
1787874026 39.44° C 24% 1010.7 hPa 0 mm - - -
1787873725 40° C 25% 1010.7 hPa 0 mm - - -
1787873420 40° C 25% 1010.9 hPa 0 mm - - -
1787873115 41.67° C 24% 1010.9 hPa 0 mm - - -

* Rain latest hour (hover to see other rain measurements)
** Current wind speed in m/s (hover to see current wind gust speed)